This is the latest recevied weather packets stored in our database for station/object K6CED. If no packets are shown the sender has not sent any weather packets the latest 1 day(s).
| Time | Temp. | Humidity | Pressure | Rain* | Wind** | Luminosity | Snow |
|---|---|---|---|---|---|---|---|
| 1777981992 | 11.11° C | 97% | 1015.3 hPa | 0 mm | 0.89 m/s, 52° | 0 W/m² | - |
| 1777981689 | 11.11° C | 97% | 1015.3 hPa | 0 mm | 0.89 m/s, 48° | 0 W/m² | - |
| 1777981386 | 11.11° C | 96% | 1015.5 hPa | 1.27 mm | 0.89 m/s, 40° | 0 W/m² | - |
| 1777981082 | 11.11° C | 96% | 1015.4 hPa | 1.27 mm | 0.89 m/s, 32° | 0 W/m² | - |
| 1777980778 | 11.11° C | 96% | 1015.5 hPa | 0 mm | 0.45 m/s, 80° | 0 W/m² | - |
| 1777980474 | 11.11° C | 96% | 1015.5 hPa | 0 mm | 0 m/s | 0 W/m² | - |
| 1777980172 | 11.11° C | 96% | 1015.5 hPa | 0 mm | 0 m/s | 0 W/m² | - |
| 1777979867 | 11.11° C | 95% | 1015.3 hPa | 0 mm | 0.45 m/s, 82° | 0 W/m² | - |
| 1777979563 | 11.11° C | 95% | 1015.4 hPa | 0 mm | 0 m/s | 0 W/m² | - |
| 1777979259 | 11.11° C | 95% | 1015.4 hPa | 3.56 mm | 0.89 m/s, 55° | 0 W/m² | - |
| 1777978957 | 11.11° C | 94% | 1015.5 hPa | 4.32 mm | 0.89 m/s, 47° | 0 W/m² | - |
| 1777978653 | 11.11° C | 94% | 1015.5 hPa | 3.05 mm | 0.89 m/s, 36° | 0 W/m² | - |
| 1777978349 | 11.67° C | 94% | 1015.5 hPa | 0.51 mm | 0.89 m/s, 86° | 0 W/m² | - |
| 1777978046 | 11.67° C | 93% | 1015.4 hPa | 0.51 mm | 0.89 m/s, 48° | 0 W/m² | - |
| 1777977743 | 11.67° C | 92% | 1015.5 hPa | 0 mm | 0.89 m/s, 88° | 0 W/m² | - |
| 1777977439 | 11.67° C | 92% | 1015.4 hPa | 0 mm | 0.89 m/s, 63° | 0 W/m² | - |
| 1777977137 | 11.67° C | 91% | 1015.5 hPa | 0 mm | 0.89 m/s, 92° | 0 W/m² | - |
| 1777976834 | 11.67° C | 91% | 1015.4 hPa | 0 mm | 1.34 m/s, 106° | 0 W/m² | - |
| 1777976532 | 11.67° C | 91% | 1015.5 hPa | 0 mm | 0.89 m/s, 45° | 0 W/m² | - |
| 1777976231 | 11.67° C | 91% | 1015.7 hPa | 0 mm | 0.45 m/s, 56° | 0 W/m² | - |
| 1777975927 | 11.67° C | 91% | 1015.5 hPa | 0 mm | 1.34 m/s, 44° | 0 W/m² | - |
| 1777975623 | 11.67° C | 92% | 1015.4 hPa | 0 mm | 0.89 m/s, 77° | 0 W/m² | - |
| 1777975320 | 11.67° C | 92% | 1015.4 hPa | 0 mm | 0.45 m/s, 75° | 0 W/m² | - |
| 1777975016 | 11.67° C | 91% | 1015.5 hPa | 0 mm | 0.89 m/s, 80° | 0 W/m² | - |
| 1777974714 | 11.67° C | 91% | 1015.6 hPa | 0 mm | 0.89 m/s, 81° | 0 W/m² | - |
* Rain latest hour (hover to see other rain measurements)
** Current wind speed in m/s (hover to see current wind gust speed)